Regional Weather Roundup
Issued by NWS

Home | Current Version | Previous Version | Graphics & Text | Print | Product List | Glossary On
Versions: 1 2 3 4 5 6 7 8 9 10 11 12 13 14 15 16 17 18 19 20 21 22 23 24 25 26 27 28 29 30 31 32 33 34 35 36 37 38 39 40 41 42 43 44 45 46 47 48 49 50
000
ASUS43 KLSX 242359
RWRMO

WEATHER SUMMARY FOR MISSOURI
NATIONAL WEATHER SERVICE SPRINGFIELD MO
700 PM CDT THU APR 24 2014

NOTE: "FAIR" INDICATES FEW OR NO CLOUDS BELOW 12,000 FEET WITH NO
       SIGNIFICANT WEATHER AND/OR OBSTRUCTIONS TO VISIBILITY.
       CURRENT SKY AND/OR WEATHER CONDITIONS ARE NOT AVAILABLE FOR
       CHILLICOTHE AND FARMINGTON.

MOZ001>031-035>038-043-044-053-054-250100-
...NORTHERN AND WESTERN MISSOURI...

CITY           SKY/WX    TMP DP  RH WIND       PRES   REMARKS
KANSAS CTY INT CLOUDY    57  48  72 NW10      29.78R
6HR MIN TEMP:  54; 6HR MAX TEMP:  60; 6HR PCP:  0.19;

KANSAS C DTWN  CLOUDY    59  46  62 NW12G21   29.77R
6HR MIN TEMP:  57; 6HR MAX TEMP:  61; 6HR PCP:  0.24;

LEE`S SUMMIT   CLOUDY    57  46  66 NW17G30   29.77R
6HR MIN TEMP:  56; 6HR MAX TEMP:  60; 6HR PCP:  0.25;

ST JOSEPH      CLOUDY    57  49  74 NW7       29.79R
6HR MIN TEMP:  54; 6HR MAX TEMP:  58;

CHILLICOTHE      N/A     54  50  86 NW10G21   29.73R
6HR MIN TEMP:  54; 6HR MAX TEMP:  58; 6HR PCP:  0.68;

KIRKSVILLE     CLOUDY    55  54  94 NW13G21   29.63R
6HR MIN TEMP:  52; 6HR MAX TEMP:  56; 6HR PCP:  0.32;


$$
MOZ066>068-077>081-088>096-101>105-250100-
...SOUTHWEST MISSOURI...

CITY           SKY/WX    TMP DP  RH WIND       PRES   REMARKS
SPRINGFIELD    LGT RAIN  60  57  89 NW15G24   29.68R
6HR MIN TEMP:  58; 6HR MAX TEMP:  78; 6HR PCP:  0.50;

JOPLIN         CLOUDY    59  51  75 NW13      29.77R
6HR MIN TEMP:  58; 6HR MAX TEMP:  69; 6HR PCP:  0.21;


$$
MOZ032>034-039>042-045>050-055>058-069>072-250100-
...CENTRAL MISSOURI...

CITY           SKY/WX    TMP DP  RH WIND       PRES   REMARKS
COLUMBIA       CLOUDY    57  56  96 W6        29.65R
6HR MIN TEMP:  57; 6HR MAX TEMP:  77; 6HR PCP:  0.46;

JEFFERSON CITY CLOUDY    59  57  93 CALM      29.64S
6HR MIN TEMP:  58; 6HR MAX TEMP:  77; 6HR PCP:  0.46;

ROLLA          LGT RAIN  57  55  93 S6        29.65R
6HR MIN TEMP:  56; 6HR MAX TEMP:  75; 6HR PCP:  0.62;

SEDALIA        CLOUDY    58  53  84 NW12      29.70R
6HR MIN TEMP:  58; 6HR MAX TEMP:  74; 6HR PCP:  0.51;

OSAGE BEACH    CLOUDY    57  55  94 W7        29.69R

$$
MOZ051-052-059>065-250100-
...EAST CENTRAL MISSOURI...

CITY           SKY/WX    TMP DP  RH WIND       PRES   REMARKS
ST LOUIS INTL  LGT RAIN  61  55  81 NW14G22   29.67R
6HR MIN TEMP:  61; 6HR MAX TEMP:  81; 6HR PCP:  0.08;

SPIRIT OF STL  RAIN     N/A N/A N/A NW9       29.65S
ST CHARLES     RAIN      60  56  86 NW8       29.66R FOG
6HR MIN TEMP:  60; 6HR MAX TEMP:  80; 6HR PCP:  0.21;


$$
MOZ072>076-082>087-097>100-106>115-250100-
...SOUTH CENTRAL AND SOUTHEAST MISSOURI...

CITY           SKY/WX    TMP DP  RH WIND       PRES   REMARKS
CAPE GIRARDEAU CLOUDY    73  53  49 S10G26    29.65F
6HR MIN TEMP:  73; 6HR MAX TEMP:  80;

FARMINGTON     CLOUDY    64  57  77 SW9       29.68R THUNDER
6HR MIN TEMP:  64; 6HR MAX TEMP:  79; 6HR PCP:  0.07;

POPLAR BLUFF   CLOUDY    69  59  70 W7        29.67R
6HR MIN TEMP:  68; 6HR MAX TEMP:  79; 6HR PCP:  0.02;

WEST PLAINS    MOCLDY    66  57  72 S8G18     29.64F
6HR MIN TEMP:  66; 6HR MAX TEMP:  73; 6HR PCP: TRACE;


$$



USA.gov is the U.S. government's official web portal to all federal, state and local government web resources and services.